Theta_e
350 350 350 350 351 351 352 352 353 354 353 353 354 353 352 353 354 355 356 356 356 357 357 356 356 356 356 356 355 354 354 354 353 352 352 353 352 353 352 351 352 353 353 353 352 351 350 349 350 351 353 353 353 355 357 357 356 354 353 355 356 355 355
349 349 349 350 350 351 351 352 354 354 353 353 353 352 352 352 353 354 355 355 355 356 357 356 355 356 356 356 355 355 354 354 354 353 353 353 351 351 351 351 351 352 351 352 351 350 350 349 349 350 352 353 353 355 357 357 356 354 352 354 355 356 356
347 348 349 349 350 351 351 352 353 353 352 352 352 352 352 352 352 353 354 355 355 356 357 356 355 356 356 356 356 355 354 355 355 354 354 354 352 352 352 352 351 351 351 351 351 351 351 351 351 350 351 352 352 355 356 356 356 354 353 353 355 356 356
345 346 348 349 350 351 351 351 351 352 352 351 351 351 352 351 351 351 353 354 355 355 356 356 355 356 356 356 356 356 355 355 355 355 355 355 354 352 353 353 352 352 352 351 351 351 351 351 352 351 352 352 352 354 354 355 355 354 353 353 355 355 356
345 345 346 348 349 350 350 349 351 352 351 350 350 351 351 351 351 351 352 353 354 355 355 355 355 356 356 356 356 356 356 355 355 356 356 356 355 354 354 354 353 353 352 351 351 352 351 352 352 352 352 352 352 353 353 354 355 355 353 353 354 355 355
342 344 345 346 346 348 349 347 349 351 350 350 349 350 351 350 350 351 351 353 354 354 355 355 356 356 356 356 356 357 356 356 356 356 356 356 356 355 354 354 353 353 353 352 352 352 351 351 352 352 352 352 353 353 352 353 356 355 353 353 354 355 355
343 344 344 345 344 345 346 346 348 349 349 350 349 349 349 349 350 350 350 352 353 354 355 355 355 356 356 356 356 357 357 356 356 356 356 356 356 356 355 354 354 353 353 352 352 352 352 352 352 351 352 352 353 353 351 351 354 354 353 353 353 354 355
344 346 343 343 343 343 344 345 346 348 349 349 349 348 348 348 349 349 349 351 352 353 354 354 355 355 355 355 356 357 356 356 357 356 356 357 356 356 356 355 354 353 353 353 352 352 352 352 352 351 352 353 352 352 349 348 351 352 353 353 353 354 354
341 346 344 342 340 339 342 344 346 347 349 350 349 348 348 347 347 349 349 350 351 352 353 353 355 356 355 355 356 356 357 357 357 357 357 357 357 357 357 356 355 353 353 353 353 353 352 352 352 352 351 352 352 352 350 348 350 352 353 353 352 353 354
342 347 347 344 341 341 341 342 346 348 350 351 350 348 349 348 348 348 348 349 350 351 352 352 354 355 355 355 355 356 357 357 358 357 357 357 357 357 356 356 356 355 353 353 354 354 353 352 352 352 352 352 352 353 351 350 351 352 353 352 352 353 353
345 349 349 347 345 346 343 342 347 351 351 351 350 350 349 348 348 347 348 349 349 350 352 352 353 355 355 355 356 356 357 357 357 357 357 357 357 357 357 356 357 356 354 354 354 354 353 353 353 353 353 352 352 353 352 351 351 352 353 352 352 352 353
347 350 350 349 349 349 348 348 349 351 352 351 349 349 349 348 348 348 348 348 348 349 351 352 353 354 354 355 355 357 358 358 357 357 357 357 357 357 357 357 356 356 356 355 355 355 354 354 353 353 353 352 352 352 352 351 352 352 352 352 352 352 352
343 345 346 347 349 351 354 356 353 351 351 350 348 348 349 349 348 348 349 348 348 349 351 352 353 354 354 355 355 357 358 358 357 357 357 357 357 357 357 357 356 357 357 355 355 355 355 355 354 353 352 352 352 352 352 352 352 352 352 352 352 352 352
341 341 343 345 347 351 356 357 356 354 352 350 348 348 348 348 349 348 348 349 349 349 351 353 353 354 354 354 355 357 357 357 357 358 358 358 358 357 357 357 357 357 357 356 356 356 356 355 355 354 353 352 352 352 353 352 352 353 352 352 352 352 352
344 338 340 345 349 351 354 355 357 357 354 350 349 349 348 348 348 348 348 350 350 349 350 352 353 353 354 355 356 356 356 356 357 358 358 359 358 358 358 357 357 357 357 356 356 356 356 356 355 355 354 353 353 353 353 353 353 353 352 352 352 352 352
343 338 340 348 352 350 349 352 354 355 356 354 351 350 349 348 348 348 349 349 350 350 350 352 351 351 354 356 355 354 354 355 357 358 358 358 358 357 358 358 358 357 357 357 356 356 356 356 356 356 355 354 354 354 354 353 353 352 352 352 352 352 351
345 346 346 346 347 345 345 349 351 353 356 356 354 351 348 348 348 348 349 349 349 350 350 351 350 351 353 355 353 353 354 355 356 357 358 358 358 358 358 358 358 358 358 357 357 357 356 356 356 356 356 356 355 355 355 354 353 352 352 351 351 351 351
355 356 350 344 343 343 344 345 347 351 352 351 352 351 348 347 348 348 349 349 349 350 350 352 352 352 353 354 354 354 355 355 356 357 357 358 358 358 358 358 358 359 358 358 358 358 357 357 357 356 356 356 356 356 356 355 353 352 352 351 351 351 351
351 352 345 342 343 342 342 341 343 347 349 349 351 351 348 347 348 349 348 348 349 349 350 351 352 352 353 355 355 354 355 356 357 357 358 358 358 358 358 358 358 359 359 358 358 358 358 358 357 357 357 357 357 357 356 355 354 352 352 351 351 351 351
350 348 344 345 345 344 343 342 342 345 349 350 349 348 348 346 346 347 347 347 348 349 349 351 351 352 354 355 355 355 356 357 358 358 358 358 358 359 359 359 359 359 359 359 359 358 359 358 358 358 358 357 357 356 356 356 355 353 352 351 351 351 351
355 353 352 354 354 352 351 348 345 345 347 347 346 347 349 348 346 347 347 347 348 348 349 351 351 352 355 356 356 357 357 358 358 359 360 359 359 359 359 359 359 359 359 359 359 358 359 358 358 358 357 357 357 357 357 356 355 354 352 351 351 351 351
354 354 355 355 355 355 355 353 350 346 345 345 345 346 348 348 348 349 349 348 348 349 350 351 352 354 355 356 357 358 358 359 359 360 360 360 359 359 359 359 359 359 359 359 358 358 359 358 358 358 358 358 357 357 357 357 355 354 353 352 352 351 351
351 351 352 352 353 354 356 356 355 350 346 346 345 346 348 349 349 350 352 352 351 351 352 354 355 356 356 356 358 358 358 358 359 360 360 360 360 360 359 360 360 360 359 359 359 359 359 359 358 358 358 358 357 357 357 356 356 355 353 353 352 351 351
348 349 350 350 351 353 355 357 354 349 347 347 347 348 348 349 350 352 354 355 354 353 354 355 356 356 356 358 358 357 357 356 357 358 359 360 360 360 360 360 360 360 360 359 359 359 358 358 358 358 358 358 358 358 357 357 357 355 354 353 352 351 351
348 348 349 350 351 352 355 357 355 351 350 353 353 351 348 348 350 353 355 356 355 355 355 355 356 357 357 358 357 355 355 356 357 358 359 360 361 360 360 361 361 361 360 359 359 359 359 359 359 359 359 358 358 358 357 357 357 355 354 354 353 352 351
347 346 348 351 351 352 354 357 357 356 356 357 355 352 351 351 352 354 357 358 356 355 356 357 357 357 356 356 356 355 356 358 358 359 359 360 360 360 361 361 361 360 360 359 359 359 359 359 359 359 359 359 359 358 357 357 357 356 355 354 353 353 351
345 345 347 348 349 351 353 354 354 354 354 355 354 353 353 354 356 356 358 358 357 356 357 356 355 354 353 355 356 357 358 359 359 359 359 360 361 361 361 360 360 360 360 360 360 360 359 359 359 359 359 359 359 359 358 357 357 356 356 354 354 353 352
344 345 346 347 348 349 351 352 353 352 352 353 354 355 354 355 357 358 358 358 359 358 358 356 355 354 354 354 356 357 358 359 359 360 360 361 361 362 361 361 361 361 361 360 360 360 360 360 360 359 359 359 359 359 358 357 357 356 355 355 354 353 352
343 344 345 346 346 348 350 351 350 350 350 351 353 355 356 357 359 359 359 360 359 357 356 356 355 354 355 355 356 357 359 359 360 360 360 362 362 362 362 362 362 362 362 361 361 361 361 360 360 359 359 359 359 359 359 358 357 356 355 355 354 354 353
343 343 344 345 346 347 349 349 348 348 348 349 350 352 356 359 360 360 359 358 356 355 357 359 357 355 355 356 356 357 358 360 360 360 361 362 363 362 362 363 363 362 362 362 361 361 361 360 360 360 360 360 359 359 359 358 357 356 355 354 354 353 353
344 344 345 345 345 346 346 347 347 346 346 347 348 348 351 354 357 356 355 354 354 356 359 360 360 359 358 357 357 357 358 359 359 361 362 362 362 363 363 364 364 363 363 362 362 361 361 361 361 361 360 360 360 360 360 359 357 356 355 354 353 353 353
343 344 345 345 345 345 345 346 346 345 345 345 345 346 347 348 350 350 350 351 353 355 358 360 362 362 360 360 359 358 358 358 359 360 361 361 362 362 363 363 363 363 363 362 361 361 361 361 361 361 360 360 360 360 360 358 357 356 354 353 352 352 353
343 344 345 345 345 345 345 346 346 345 345 345 345 345 345 345 346 346 347 349 350 352 355 359 361 362 362 361 361 360 359 359 358 359 360 361 361 362 362 363 363 362 363 362 361 362 362 361 361 361 360 360 360 360 360 359 358 356 354 352 352 352 352
343 344 345 345 345 345 345 345 345 345 345 345 344 344 344 344 345 345 345 347 348 349 352 354 356 358 360 360 360 360 360 360 359 359 358 359 359 360 360 361 362 362 362 362 362 361 361 361 361 361 360 360 360 361 361 359 357 356 354 351 351 351 351
343 344 344 344 344 344 344 344 344 344 344 344 344 344 344 344 344 343 344 345 346 347 348 349 351 353 354 355 355 355 355 356 357 357 357 358 358 359 359 360 361 361 361 362 362 362 362 362 362 361 361 361 360 361 361 359 357 356 354 352 351 351 350
343 343 344 344 343 343 344 344 343 343 343 343 343 343 344 343 343 343 343 343 344 345 346 347 348 348 348 349 350 349 349 349 349 350 351 353 353 354 354 356 357 358 359 359 360 360 360 361 361 361 361 361 361 361 360 358 357 356 354 351 351 352 352
342 343 343 344 343 344 344 344 343 344 343 343 343 343 343 343 343 343 343 342 342 343 343 344 344 344 343 344 344 343 345 346 344 344 344 344 344 344 345 347 349 351 353 354 356 356 357 357 357 358 358 359 360 360 360 359 357 355 353 351 351 352 353
340 341 342 343 343 344 344 344 344 344 344 344 344 343 344 344 343 344 344 343 342 342 342 343 342 342 341 341 340 340 342 343 343 342 342 341 340 340 341 342 344 344 343 343 345 348 349 350 351 352 354 355 356 358 359 358 356 354 351 350 351 351 351
Wind_Speed
18 19 19 18 17 18 18 18 19 22 25 27 28 31 32 32 31 30 29 33 35 33 34 36 36 34 35 37 39 41 41 38 38 39 37 35 35 34 34 36 34 33 32 32 33 33 33 32 31 31 29 28 27 20 16 15 17 19 21 19 19 18 17
16 17 18 18 17 19 19 19 20 22 25 27 29 30 31 31 32 33 32 34 38 37 35 38 38 37 37 38 38 40 42 39 38 39 36 35 38 38 37 37 36 35 36 34 34 34 34 33 32 32 30 30 29 21 16 16 18 21 23 21 20 20 19
15 16 17 18 19 19 19 19 19 23 26 27 29 30 32 33 36 38 35 34 37 37 35 38 41 40 38 38 38 40 42 39 37 38 37 36 38 38 35 36 37 36 36 35 35 34 33 33 32 32 31 30 29 23 17 16 18 22 24 22 21 21 20
14 16 17 18 19 18 18 18 19 24 28 29 32 33 34 38 40 40 38 36 36 37 37 40 42 41 38 38 38 38 40 40 38 39 37 35 36 37 34 35 36 35 35 36 36 34 33 33 32 32 31 30 30 26 20 18 18 23 26 24 23 22 21
15 15 15 16 17 16 17 18 20 25 29 32 34 33 34 38 37 36 37 36 36 38 41 41 38 37 36 37 37 37 39 41 40 38 36 34 35 37 36 35 35 35 36 36 35 34 34 33 32 32 32 31 30 27 23 20 18 23 27 25 24 24 22
13 13 13 15 16 17 19 21 23 28 32 33 34 33 33 35 34 34 36 35 35 35 36 36 34 34 37 39 38 36 37 40 41 40 37 35 36 37 37 37 36 36 36 36 36 36 35 34 33 33 32 32 30 28 26 22 19 22 28 27 26 26 24
11 12 14 15 15 17 19 20 23 29 32 32 31 31 31 31 32 34 34 34 36 34 33 35 35 36 39 40 37 36 37 39 40 40 39 37 37 37 36 37 38 38 38 37 37 37 36 35 35 35 34 32 31 29 29 27 23 25 29 28 28 27 26
9 10 12 14 15 16 17 18 20 24 27 27 26 27 29 30 30 32 33 34 35 34 34 36 36 36 40 40 38 38 38 37 37 39 39 37 35 36 35 36 39 40 39 38 38 38 37 37 37 36 35 34 33 33 33 31 29 30 30 29 29 29 28
8 7 9 12 13 14 14 15 16 18 20 23 25 26 28 29 29 31 34 33 33 34 36 37 36 36 41 42 40 39 38 36 35 37 38 36 34 35 34 35 38 41 41 39 38 38 39 39 38 38 37 36 35 35 35 34 33 32 32 31 31 31 30
7 6 7 9 11 11 11 11 12 14 15 19 24 25 26 28 28 30 32 32 33 36 37 38 35 34 39 41 39 37 36 35 35 35 36 36 35 34 34 33 34 39 42 40 37 37 40 40 39 38 38 38 37 35 35 36 35 33 33 33 32 32 32
6 6 5 8 10 10 11 12 13 13 13 16 21 24 27 28 28 29 30 32 34 35 36 36 33 32 36 39 36 34 35 36 36 35 36 36 35 35 35 33 32 34 39 40 37 36 39 40 40 39 39 39 39 36 36 37 37 35 35 34 34 34 33
5 5 5 8 9 9 11 12 13 14 14 15 19 23 26 28 28 29 30 32 34 34 33 34 33 32 33 36 34 33 35 37 36 36 36 37 36 35 35 34 32 32 35 39 38 36 36 39 41 41 41 41 41 39 39 39 38 37 37 35 35 34 34
4 4 5 7 7 8 9 10 13 15 14 14 18 23 25 27 28 29 30 32 33 32 30 31 32 31 31 34 34 33 35 38 39 37 36 36 36 35 34 35 34 33 34 37 37 35 33 36 40 42 43 43 42 41 40 40 39 38 38 36 36 35 35
5 6 6 6 7 9 10 10 12 14 13 13 17 21 24 25 27 30 32 32 32 31 30 30 31 32 32 34 33 33 38 41 40 37 36 35 36 36 34 35 35 34 35 36 36 35 34 35 38 41 43 43 43 42 40 40 40 39 39 38 37 36 35
6 6 6 6 7 9 10 11 11 12 12 13 16 19 22 24 27 31 31 30 30 32 31 31 34 36 33 32 36 39 43 43 38 35 35 34 35 38 36 34 34 35 36 37 37 35 34 34 35 39 41 42 42 41 40 40 41 40 39 39 38 37 36
5 6 6 7 7 8 9 11 11 11 11 11 13 17 21 24 27 30 30 29 31 32 31 32 38 40 33 33 42 45 42 41 38 35 34 35 37 41 39 35 36 37 37 38 38 35 35 35 35 35 37 38 39 39 39 40 42 42 40 39 39 39 38
6 6 7 7 6 5 7 9 10 10 11 12 14 18 21 25 28 29 28 28 30 32 32 33 38 40 38 40 44 42 38 40 40 36 36 38 39 40 40 38 36 36 37 37 37 36 36 37 35 33 32 33 36 37 37 40 43 42 41 41 40 38 39
6 7 7 5 5 5 7 9 10 12 13 14 16 18 23 25 25 26 27 29 31 32 31 32 36 40 41 40 39 37 38 39 38 36 37 38 38 39 39 38 36 35 36 36 36 36 35 35 35 34 32 30 32 34 35 39 43 42 42 42 41 40 39
7 6 6 5 5 7 8 8 9 11 13 14 16 21 26 25 23 25 31 33 33 33 31 33 37 40 39 37 36 38 41 38 36 36 37 38 38 36 36 36 36 35 35 34 35 35 33 34 34 34 32 31 31 32 32 35 40 42 43 42 42 42 40
7 6 5 6 6 7 7 8 9 10 12 15 19 22 24 25 26 29 32 30 30 32 33 34 37 38 37 37 38 39 39 37 36 36 35 36 35 33 34 35 35 34 33 33 33 33 33 35 34 33 33 33 31 31 31 33 37 41 43 43 42 42 41
5 5 5 5 5 6 6 7 9 10 11 15 18 17 19 24 27 27 26 27 29 31 32 33 34 34 31 31 33 34 34 35 34 32 31 31 32 32 33 33 33 33 32 32 32 33 35 35 33 34 35 34 33 33 32 33 36 39 41 42 43 42 41
3 3 4 4 5 6 6 7 9 10 11 12 14 16 18 22 23 20 22 26 30 31 31 31 31 29 26 26 28 29 30 31 30 29 28 29 29 31 32 32 33 33 31 31 32 34 34 33 33 35 35 34 35 35 33 33 33 36 39 40 41 41 40
2 3 4 5 6 7 8 8 9 10 10 10 13 15 17 19 19 19 20 22 26 29 29 27 25 26 27 27 27 28 30 31 31 29 28 28 30 32 33 33 34 33 32 32 33 33 33 33 34 36 35 35 36 36 34 32 31 33 36 38 39 39 40
2 2 3 5 6 7 8 7 6 7 7 9 11 14 17 18 19 20 20 19 22 24 24 23 25 26 27 26 26 30 35 37 36 33 30 30 32 33 33 33 33 33 34 35 34 33 34 34 35 36 35 35 36 37 34 32 33 34 34 36 39 40 41
1 2 3 4 5 6 8 7 2 2 3 4 6 9 16 20 21 19 18 18 20 20 21 23 24 23 23 24 28 35 38 37 37 35 32 32 34 33 32 32 32 32 33 34 33 32 32 33 34 35 36 36 37 40 38 33 34 37 36 36 39 40 41
1 2 3 4 5 6 7 7 7 8 7 5 2 3 11 17 19 17 15 15 17 18 19 19 19 20 23 26 29 33 33 30 32 34 33 33 33 32 31 32 31 30 31 32 32 31 31 32 32 33 35 36 37 40 40 37 36 39 39 38 38 40 41
1 2 3 4 6 7 8 9 10 10 9 7 4 3 7 12 13 13 12 12 14 15 15 16 21 25 28 29 28 28 27 27 31 34 34 31 29 29 29 30 29 29 31 33 33 33 33 34 34 33 33 33 32 33 36 38 39 41 42 40 39 42 43
2 2 3 4 6 7 8 10 12 13 12 11 8 5 6 9 9 8 9 10 9 9 8 12 18 22 24 26 26 25 26 27 29 32 31 27 27 28 28 29 29 29 30 31 31 33 35 36 35 34 32 30 31 32 32 34 37 41 44 43 42 44 45
3 2 4 5 6 8 10 11 12 14 13 12 12 9 6 7 8 7 8 7 5 4 5 8 13 17 19 23 23 22 24 26 27 29 28 25 27 30 29 29 29 29 29 30 29 31 34 35 34 34 32 30 31 32 32 32 34 39 45 45 44 46 47
3 4 5 5 6 9 11 11 12 13 14 14 14 13 11 9 9 9 8 6 4 2 3 5 10 15 18 20 21 22 23 23 25 27 27 25 27 29 28 27 28 28 29 30 31 31 32 32 32 32 32 30 29 29 32 34 35 40 45 48 46 47 49
4 5 6 7 8 10 11 12 13 14 14 15 15 15 14 13 12 12 10 7 4 3 3 1 4 10 14 16 18 20 21 21 22 24 24 24 25 26 27 26 25 26 28 30 31 33 33 31 30 29 30 31 31 32 35 38 39 40 44 48 48 47 48
5 6 7 7 8 10 12 13 13 14 15 14 14 14 14 14 14 13 10 7 6 6 5 4 2 2 7 10 12 15 17 18 19 20 21 23 24 25 26 25 25 26 28 29 31 33 32 29 26 27 30 33 34 34 34 35 37 39 43 47 48 48 48
6 7 7 7 8 9 11 12 11 12 14 13 13 13 13 13 14 12 10 9 9 8 6 6 6 4 1 2 5 8 10 12 13 14 16 19 21 22 23 24 25 26 26 29 31 30 29 28 26 26 29 32 33 32 30 29 32 36 42 47 49 50 51
6 7 8 8 8 9 11 11 10 11 12 12 12 13 13 14 14 12 11 11 10 9 9 8 8 7 6 4 2 1 3 6 8 9 12 15 18 21 22 23 25 28 29 32 32 30 29 29 30 31 32 33 33 30 25 25 31 37 43 49 52 54 54
7 8 10 11 11 12 13 12 12 12 12 12 12 13 13 14 14 13 13 12 11 11 11 10 10 9 8 7 6 5 4 2 1 3 6 9 11 14 17 19 21 25 28 30 32 33 33 33 33 36 36 35 35 31 23 24 34 42 45 48 51 53 52
8 9 11 13 14 15 16 16 15 15 15 14 15 15 15 15 15 15 14 13 12 12 12 11 11 10 9 9 7 6 6 5 5 5 4 5 6 9 13 16 18 20 23 25 26 30 33 35 36 39 37 34 36 36 34 36 44 48 48 48 51 55 55
8 9 12 14 15 15 17 18 18 18 18 18 19 20 19 19 18 16 15 14 13 13 13 13 12 11 10 9 8 7 7 7 6 7 6 6 7 9 11 13 16 19 22 25 27 29 31 33 36 40 40 37 37 40 44 47 49 49 49 52 55 58 59
10 11 12 15 16 17 17 18 18 18 19 19 19 21 20 20 19 18 16 14 13 12 13 14 14 13 11 9 8 8 7 6 6 6 6 7 7 7 7 8 11 15 18 21 23 27 30 33 37 41 44 46 45 45 46 47 48 48 49 53 57 59 60
Wind_Direction
200 203 203 202 199 199 200 197 194 197 199 199 200 202 202 202 200 199 198 200 203 204 203 205 204 203 205 208 211 214 215 214 214 216 216 216 218 218 220 222 221 222 223 224 227 229 232 233 234 237 237 238 240 236 232 234 236 243 247 245 242 243 241
200 205 204 201 200 201 202 198 194 196 199 200 200 201 202 200 197 199 201 201 203 205 203 204 205 205 206 208 210 213 215 214 215 216 216 217 220 221 222 223 223 224 227 228 229 231 233 234 235 236 236 238 239 235 230 232 236 242 245 243 241 242 239
202 205 202 201 202 201 199 196 195 198 200 200 199 200 201 200 199 201 202 200 202 204 203 204 207 207 207 208 209 212 214 214 214 215 216 217 220 221 221 223 224 226 228 229 231 232 233 234 235 236 236 237 238 234 229 229 233 240 244 242 241 241 240
204 205 200 200 202 200 196 195 197 200 202 202 201 200 200 201 202 203 203 201 201 201 202 204 206 206 206 207 208 211 212 213 213 215 216 216 219 220 219 221 223 224 226 229 231 231 232 234 234 236 236 236 237 235 232 229 231 239 243 241 239 240 240
207 202 199 200 202 201 197 198 199 199 202 204 203 201 200 201 201 201 203 203 203 203 204 205 203 202 204 206 208 209 211 213 214 214 215 214 217 219 218 219 221 222 225 228 229 230 232 233 233 235 236 236 236 233 232 230 229 237 241 239 238 238 237
204 196 198 201 202 202 200 202 203 201 203 204 203 202 201 201 200 200 202 202 203 204 203 202 200 199 203 206 207 208 209 212 214 214 215 215 217 218 219 220 221 222 224 226 227 229 232 232 233 234 235 235 233 229 230 229 224 234 239 237 236 236 235
200 192 198 200 200 202 200 202 204 203 205 204 203 202 201 200 200 200 201 200 201 201 199 199 200 200 204 205 205 206 208 210 212 214 215 216 218 218 219 220 221 223 224 226 227 228 229 231 233 235 235 234 231 228 230 230 228 234 237 236 235 235 234
208 195 202 201 200 203 202 202 203 203 202 199 200 201 200 201 201 199 200 201 200 200 200 202 201 201 204 204 203 206 207 208 209 212 214 214 216 217 217 219 222 223 224 224 226 228 229 230 232 234 235 234 232 230 230 233 235 236 235 234 234 234 233
225 210 210 206 204 206 205 201 199 200 196 192 197 199 198 200 200 199 200 200 198 199 201 203 201 201 203 203 204 205 205 205 207 209 211 211 212 214 214 217 221 224 224 224 225 227 228 230 231 233 234 233 232 231 231 233 235 234 234 234 234 233 233
236 221 210 206 205 203 202 196 191 196 196 196 201 200 195 195 197 198 200 199 198 200 202 202 200 199 200 202 204 203 202 203 204 206 208 209 211 213 213 214 217 221 224 223 222 224 228 230 230 231 233 232 231 230 230 232 232 232 233 234 234 233 233
246 230 201 199 201 195 194 192 191 198 201 200 201 198 197 196 195 196 198 198 201 203 202 200 198 197 198 200 201 200 201 203 204 205 206 208 210 212 212 212 213 217 221 221 219 221 226 228 228 229 231 231 231 229 229 231 231 231 231 232 233 233 233
244 234 208 204 203 195 195 196 198 202 202 200 199 196 197 199 197 197 197 198 202 204 202 199 198 196 195 196 198 199 200 202 203 205 206 206 209 210 210 211 211 212 216 219 218 218 222 225 226 227 229 231 231 230 230 231 230 230 230 231 232 232 232
256 253 232 214 204 199 199 201 204 205 203 200 198 195 195 196 196 196 196 197 201 202 198 195 194 192 192 195 197 198 199 201 203 204 204 204 206 207 207 209 210 211 213 216 216 215 216 220 225 227 229 230 231 230 230 230 229 230 230 229 230 231 231
248 247 239 215 205 205 203 205 207 207 204 199 196 196 196 196 196 196 197 198 198 197 195 192 190 191 193 195 197 199 202 203 204 203 203 203 204 205 206 207 209 210 212 214 214 214 215 218 222 226 228 229 230 230 230 230 229 229 228 228 229 230 231
246 248 247 230 220 213 208 211 209 207 206 199 195 195 195 197 199 199 200 198 195 197 196 193 192 195 196 194 199 204 206 205 204 202 201 201 202 205 206 205 208 210 212 215 215 214 215 217 219 223 225 227 228 228 228 229 229 228 227 226 227 228 230
251 252 252 242 233 222 216 218 215 210 208 199 197 198 196 198 199 199 200 197 195 197 196 193 196 199 197 199 205 208 207 206 204 201 201 202 205 208 208 207 209 211 212 216 217 215 215 217 218 219 221 223 225 226 226 227 229 229 227 226 226 227 228
254 256 259 260 262 251 232 228 222 213 207 202 202 201 199 200 200 199 199 197 195 197 196 194 197 199 200 206 208 206 205 206 206 204 204 206 208 209 209 209 210 211 213 215 216 216 217 218 218 217 218 219 222 223 223 226 229 229 228 228 227 226 227
248 250 255 265 277 269 247 238 227 216 212 209 204 201 202 202 198 196 198 196 195 196 193 192 195 199 203 207 205 202 203 204 204 203 205 206 207 207 208 209 210 211 212 213 214 215 216 217 219 219 219 218 220 222 222 227 230 229 228 228 227 225 226
245 246 253 258 262 258 251 246 234 224 220 213 205 203 203 200 196 197 200 199 197 195 192 193 197 200 203 203 201 202 203 201 200 202 204 205 205 205 206 207 209 211 211 211 213 214 215 217 219 220 220 218 219 221 222 227 231 230 228 228 228 227 225
240 246 254 253 256 258 253 250 245 237 229 222 216 210 202 199 200 203 203 201 197 195 196 199 201 202 203 202 200 201 201 199 200 202 203 203 202 201 203 206 209 211 211 211 213 214 216 218 218 220 222 221 221 222 223 227 230 231 229 228 228 227 225
238 245 253 253 260 266 260 258 254 247 240 231 222 209 197 198 201 200 199 197 195 195 199 201 202 205 204 201 200 200 198 199 200 201 200 200 199 200 204 206 208 209 210 211 212 216 219 218 218 221 223 223 223 224 225 228 230 230 229 228 228 227 225
247 259 272 276 279 278 274 271 263 255 247 231 215 203 197 198 197 190 188 192 193 195 198 199 201 203 202 199 199 199 198 199 200 200 200 198 198 202 204 206 208 208 207 209 213 217 219 217 218 221 223 223 225 225 227 229 231 230 229 228 228 227 225
289 292 298 304 302 295 287 280 268 259 248 220 202 200 195 191 187 183 181 185 190 194 195 196 199 200 199 198 196 195 197 200 200 200 200 198 200 203 205 206 208 207 205 207 210 213 216 217 219 222 222 222 224 225 227 230 230 229 228 226 226 225 224
297 307 322 324 317 313 311 301 272 247 228 202 194 195 192 187 183 181 180 181 187 190 192 197 201 200 198 196 193 196 201 204 203 202 200 201 203 205 205 206 208 206 206 208 211 213 215 217 219 221 221 221 222 222 222 224 226 226 224 223 224 223 223
3 6 3 352 342 340 342 344 0 126 142 160 175 188 191 187 183 181 182 182 184 187 193 201 203 199 195 194 197 203 206 204 203 202 202 204 206 206 205 206 207 207 207 210 213 214 214 214 215 217 218 218 220 220 218 217 220 222 221 220 221 221 220
36 33 23 17 12 11 14 22 48 68 64 55 59 181 186 183 180 181 182 179 182 191 199 203 200 196 197 199 202 207 207 202 201 203 205 207 208 206 207 207 208 208 209 211 214 216 217 217 217 218 217 216 216 216 215 213 214 218 219 217 218 219 217
74 45 25 24 26 39 54 55 58 64 57 43 44 133 170 176 179 180 176 173 185 197 202 203 203 204 205 205 204 205 205 204 204 206 208 210 208 207 209 211 210 210 210 212 214 216 218 219 221 222 223 222 220 219 216 212 210 213 214 213 214 216 214
113 78 52 47 41 57 77 71 64 63 54 43 44 74 143 165 167 164 165 169 182 196 202 203 206 207 207 206 205 206 206 206 207 208 209 209 207 206 209 211 211 212 213 214 215 218 220 222 224 226 227 228 230 229 226 221 215 213 213 211 211 213 211
129 96 69 63 54 65 79 75 66 59 52 46 43 47 86 133 135 132 141 141 140 165 191 204 207 207 207 208 208 208 208 209 210 210 210 208 207 207 210 211 211 212 213 213 214 219 223 224 226 228 230 230 230 229 227 225 221 217 216 213 211 212 210
124 104 81 70 66 71 76 76 70 61 53 51 50 48 56 79 96 100 100 88 79 123 166 198 208 206 207 210 212 213 213 214 213 213 212 211 210 211 214 214 212 214 215 215 216 220 225 226 225 225 225 227 227 225 222 220 219 218 219 217 215 213 210
99 94 83 76 78 80 81 80 76 68 58 51 51 53 55 61 75 79 72 60 53 68 81 115 206 208 209 212 214 216 217 218 217 216 215 215 213 214 217 217 216 218 220 221 222 224 228 229 227 223 223 224 223 223 220 216 215 217 218 217 217 215 212
86 82 76 75 80 85 88 88 83 78 71 59 52 54 54 55 62 63 56 48 47 50 56 61 76 192 216 220 221 221 221 222 222 221 220 220 218 219 221 221 220 222 223 223 225 227 229 229 227 224 226 227 226 225 221 212 208 212 215 213 213 214 213
83 79 72 71 78 84 89 90 84 80 79 71 63 62 60 59 59 57 52 46 41 42 48 55 61 67 79 237 239 237 233 231 231 230 227 224 223 224 226 225 225 227 227 227 228 229 228 228 227 226 229 232 233 232 225 211 203 206 209 208 208 210 210
82 80 77 74 75 80 83 81 79 78 75 71 69 68 67 66 63 61 59 56 51 51 53 53 56 61 59 54 44 307 256 247 245 244 241 236 233 232 232 231 231 232 232 230 229 228 228 228 228 228 230 233 235 233 223 209 204 205 207 206 205 206 205
81 79 79 78 77 79 83 83 84 82 78 74 74 72 69 68 66 62 59 58 58 60 61 61 63 63 61 59 57 54 48 21 325 285 264 257 255 251 247 243 241 242 243 240 234 231 231 231 231 233 232 231 233 230 216 203 208 212 212 208 205 204 204
85 83 83 86 87 87 88 89 88 85 81 77 74 72 70 68 66 61 56 56 60 64 67 72 73 68 64 60 56 55 57 57 48 29 358 320 309 298 282 270 264 262 264 262 254 246 242 239 238 239 238 234 233 230 222 219 221 220 213 208 205 203 204
70 78 80 82 84 82 80 79 77 74 71 68 66 65 64 62 60 56 52 53 59 66 73 79 80 75 70 65 60 57 57 56 49 37 23 4 347 332 313 299 289 281 276 273 271 268 265 259 254 251 247 243 240 236 232 231 229 221 212 208 207 204 202
49 57 64 66 66 66 64 63 63 62 62 61 60 59 58 56 53 49 46 46 50 58 68 73 75 74 71 68 66 63 59 56 49 38 27 16 9 359 342 326 311 302 299 294 286 280 276 272 269 263 258 253 248 243 238 232 225 219 214 210 207 204 201